Memphis, TN

4:24 AM CDT on May 25, 2018 (GMT -0500)
Memphis International

Weather History for KMEM - December, 2013

Change the Weather History Date:

Wednesday, December 4, 2013

  Actual Average Record
Temperature  
Mean Temperature 68 °F 46 °F  
Max Temperature 76 °F 55 °F 78 °F (1998)
Min Temperature 60 °F 38 °F 18 °F (1893)
Degree Days  
Heating Degree Days 0 19  
Month to date heating degree days 33 74  
Since 1 July heating degree days 618 573  
Cooling Degree Days 3 0  
Month to date cooling degree days 3 0  
Year to date cooling degree days 2245 2256  
Growing Degree Days 16 (Base 50)    
Moisture  
Dew Point 61 °F    
Average Humidity 77    
Maximum Humidity 93    
Minimum Humidity 60    
Precipitation  
Precipitation 0.00 in 0.19 in 2.58 in (2011)
Month to date precipitation T 0.78  
Year to date precipitation 54.61 48.72  
Snow  
Snow 0.00 in 0.00 in 3.50 in (1988)
Month to date snowfall 0.0 0.0  
Since 1 July snowfall 0.0 T  
Snow Depth 0.00 in    
Sea Level Pressure  
Sea Level Pressure 29.74 in    
Wind  
Wind Speed 13 mph (SSW)    
Max Wind Speed 25 mph    
Max Gust Speed 35 mph    
Visibility 10 miles    
Events      
T = Trace of Precipitation, MM = Missing Value Source: NWS Daily Summary

Daily Weather History Graph

Daily Weather History Graph

Search for Another Location

Airport or City:

Astronomy

Dec. 04, 2013 Rise Set
Actual Time 6:52 AM CST 4:47 PM CST
Civil Twilight 6:24 AM CST 5:15 PM CST
Nautical Twilight 5:53 AM CST 5:47 PM CST
Astronomical Twilight 5:22 AM CST 6:17 PM CST
Moon 8:22 AM CST (12/4) 6:56 PM CST (12/4)
Length of Visible Light 10h 51m
Length of Day
9h 55m
Waxing Crescent, 4% of the Moon is Illuminated
Dec 4
Waxing Crescent
Dec 9
First Quarter
Dec 17
Full
Dec 25
Last Quarter
Jan 1
New

Hourly Weather History & Observations

Time (CST) Temp. Dew Point Humidity Pressure Visibility Wind Dir Wind Speed Gust Speed Precip Events Conditions
12:52 AM 60.8 °F 57.2 °F 88% 29.70 in 8.0 mi South 8.1 mph - N/A   Mostly Cloudy
12:54 AM 61.0 °F 57.0 °F 87% 29.69 in 8.0 mi South 8.1 mph - N/A   Mostly Cloudy
1:18 AM 60.8 °F 57.2 °F 88% 29.69 in 8.0 mi South 6.9 mph - N/A   Mostly Cloudy
1:54 AM 63.0 °F 59.0 °F 87% 29.69 in 9.0 mi South 10.4 mph - N/A   Overcast
2:54 AM 63.0 °F 60.1 °F 90% 29.69 in 10.0 mi South 10.4 mph - N/A   Overcast
3:54 AM 66.0 °F 61.0 °F 84% 29.70 in 9.0 mi SSW 12.7 mph - N/A   Mostly Cloudy
4:54 AM 64.9 °F 60.1 °F 84% 29.70 in 9.0 mi SSW 10.4 mph - N/A   Mostly Cloudy
5:54 AM 64.9 °F 60.1 °F 84% 29.74 in 9.0 mi SSW 9.2 mph - N/A   Overcast
6:54 AM 64.9 °F 60.1 °F 84% 29.75 in 10.0 mi SSW 11.5 mph - N/A   Mostly Cloudy
7:54 AM 66.0 °F 60.1 °F 81% 29.75 in 10.0 mi South 11.5 mph - N/A   Mostly Cloudy
8:54 AM 68.0 °F 61.0 °F 78% 29.76 in 10.0 mi SSW 13.8 mph 25.3 mph N/A   Overcast
9:54 AM 69.1 °F 61.0 °F 75% 29.77 in 10.0 mi SSW 17.3 mph 26.5 mph N/A   Overcast
10:54 AM 70.0 °F 61.0 °F 73% 29.75 in 10.0 mi SSW 17.3 mph 24.2 mph N/A   Overcast
11:54 AM 72.0 °F 60.1 °F 66% 29.73 in 10.0 mi SSW 16.1 mph 25.3 mph N/A   Mostly Cloudy
12:54 PM 73.0 °F 61.0 °F 66% 29.71 in 10.0 mi SSW 13.8 mph 25.3 mph N/A   Mostly Cloudy
1:22 PM 73.4 °F 60.8 °F 65% 29.72 in 10.0 mi SSW 19.6 mph 31.1 mph N/A   Mostly Cloudy
1:54 PM 75.0 °F 61.0 °F 62% 29.70 in 10.0 mi SSW 23.0 mph 34.5 mph N/A   Mostly Cloudy
2:13 PM 73.4 °F 60.8 °F 65% 29.71 in 10.0 mi SSW 15.0 mph 26.5 mph N/A   Mostly Cloudy
2:54 PM 75.0 °F 61.0 °F 62% 29.71 in 10.0 mi SSW 16.1 mph 25.3 mph N/A   Mostly Cloudy
3:54 PM 73.9 °F 61.0 °F 64% 29.73 in 10.0 mi SSW 17.3 mph 23.0 mph N/A   Mostly Cloudy
4:54 PM 73.0 °F 61.0 °F 66% 29.74 in 10.0 mi South 15.0 mph 23.0 mph N/A   Mostly Cloudy
5:54 PM 71.1 °F 62.1 °F 73% 29.75 in 10.0 mi SSW 9.2 mph - N/A   Scattered Clouds
6:54 PM 69.1 °F 61.0 °F 75% 29.77 in 10.0 mi South 9.2 mph - N/A   Scattered Clouds
7:54 PM 66.9 °F 61.0 °F 81% 29.80 in 10.0 mi South 6.9 mph - N/A   Mostly Cloudy
8:54 PM 66.0 °F 61.0 °F 84% 29.81 in 10.0 mi South 6.9 mph - N/A   Mostly Cloudy
9:54 PM 66.0 °F 61.0 °F 84% 29.81 in 10.0 mi South 8.1 mph - N/A   Overcast
10:54 PM 70.0 °F 63.0 °F 78% 29.82 in 10.0 mi SSW 12.7 mph - N/A   Overcast
11:54 PM 70.0 °F 62.1 °F 76% 29.82 in 10.0 mi SSW 12.7 mph - N/A   Overcast